星链-30102 (STARLINK-30102 )

导读

STARLINK-30102是美国SpaceX公司星链(Starlink)星座的一员,于北京时间2023年7月24日发射入轨,属于星链卫星互联网星座组网的一部分。星链项目旨在通过近地轨道卫星群,为全球提供高速宽带互联网服务,尤其覆盖偏远和通信基础设施匮乏区域。作为星座中一员,该卫星和其他星链卫星共同推进全球卫星互联网覆盖,提升全球网络接入的可达性,目前已在轨道正常运行,参与星座服务组网。

Basic Information
目录编号:
57434
目录名称:
STARLINK-30102
国际标识:
2023-105E
轨道中心:
EARTH
卫星名称:
星链-30102
卫星全名:
星链-30102 (STARLINK-30102 )
卫星状态:
在轨 (已飞行1145 天)
发射日期:
2023-07-24 UTC
国别 :
美国 (US)
星等 :
--
This satellite is enrolled in the Space Conjunction Data Service (SCDS) and the current flight risk assessment level is: High Risk
Orbit Information
数据来源 国际轨道数据
星历时间: 2026-09-11T11:23:36+0800
10小时前
查看轨道信息
半长轴: 6861.206km
偏心率: 0.000117
轨道倾角: 42.999°
近地点辐角 274.624°
升交点赤经 292.572°
平近点角 85.448°
近地点: 482.266km
远地点: 483.872km
周期: 94.267分钟
每日圈数: 15.275736
Detailed Information
固有亮度:
5
最大亮度:
0.3
卫星平台:
Starlink v2.0 mini
覆盖范围:
全球
运营商:
太空探索技术公司
运营商所在国:
美国
制造商(研发单位):
太空探索技术公司
制造商所在国:
美国
使用方式:
暂无
Satellite Introduction
星链(Starlink)计划是由太空探索技术公司(SpaceX)提出的一个巨型低轨卫星互联网星座项目,计划在2019年至2024年间在太空搭建由约1.2万颗卫星组成的“星链”网络,其中1584颗将部署在地球上空550千米处的近地轨道,并从2020年开始工作。该卫星仍在工作。
2D Orbit Map
3D Orbit Map
Orbit Altitude Analysis Chart
Orbit Inclination Analysis Chart
Orbit Comprehensive Analysis Chart
View Comprehensive Chart
Conjunction Data List
Event ID Objects TCA Miss Dist (km) Collision Risk Probability Collision Risk Index (CRI) Action
CDM_260911-142805-743406-680921
2026-09-11T
14:28:44+0000
0.405 km
远距离
2.556097E-4 高风险 0.83
CDM_260912-052305-743406-680921
2026-09-12T
05:23:11+0000
1.322 km
极远距离
7.784434E-6 低风险 0.53
CDM_260911-160205-743406-680921
2026-09-11T
16:02:54+0000
2.086 km
极远距离
2.010739E-6 低风险 0.41
CDM_260913-182405-743406-394821
2026-09-13T
18:24:21+0000
2.335 km
极远距离
1.6824E-6 低风险 0.4
CDM_260912-034905-743406-680921
2026-09-12T
03:49:02+0000
2.315 km
极远距离
1.601324E-6 低风险 0.39
CDM_260911-125405-743406-680922
2026-09-11T
12:54:35+0000
2.678 km
极远距离
1.240813E-6 低风险 0.37
Miss Distance Evolution Trend with All Objects
Collision Probability Evolution Trend with All Objects